Location: Caltech
(34.1382°N, 118.1253°W)
Time: 17:10:15
(UTC-07:00)

Cosmos 1975 - Visible Passes

Search period start: 23 June 2017 00:00
Search period end: 03 July 2017 00:00
Orbit: 545 x 563 km, 82.5° (Epoch: 22 June)

Date Brightness Start Highest point End Pass type
(mag) Time Alt. Az. Time Alt. Az. Time Alt. Az.
28 Jun 5.9 03:51:37 10° E 03:52:32 11° E 03:53:28 10° ENE visible
29 Jun 5.7 03:47:43 10° ESE 03:49:26 12° E 03:51:07 10° ENE visible
30 Jun 5.6 03:44:08 10° ESE 03:46:19 14° E 03:48:30 10° NE visible
01 Jul 5.5 03:40:39 10° SE 03:43:12 16° E 03:45:45 10° NE visible
01 Jul 4.0 05:15:55 10° SW 05:19:25 28° WNW 05:22:57 10° NNW visible
02 Jul 5.3 03:37:15 10° SE 03:40:05 18° E 03:42:57 10° NE visible
02 Jul 4.1 05:13:02 10° SW 05:16:23 24° WNW 05:19:45 10° NNW visible
